Radiation Dose measured at exhaust stack monitor of Fukushima Daiichi Nuclear Power Station
Date,Time,Unit 5 6 shared exhaust cylinders,Wind Direction,Wind Velocity(m/s)
2021/12/02,00:00,4.0,west-northwest,6.3
2021/12/02,00:10,3.9,west,6.3
2021/12/02,00:20,4.0,west-northwest,6.4
2021/12/02,00:30,4.0,west-northwest,8.6
2021/12/02,00:40,4.0,west,7.0
2021/12/02,00:50,3.9,west,6.7
2021/12/02,01:00,4.0,west-northwest,5.3
2021/12/02,01:10,4.0,west-northwest,4.7
2021/12/02,01:20,3.8,west-northwest,5.1
2021/12/02,01:30,3.8,west,8.2
2021/12/02,01:40,3.9,west-northwest,8.1
2021/12/02,01:50,3.9,west,6.5
2021/12/02,02:00,3.8,west-northwest,4.4
2021/12/02,02:10,4.0,west,4.8
2021/12/02,02:20,4.1,west,7.2
2021/12/02,02:30,4.0,west,6.0
2021/12/02,02:40,3.8,west,5.1
2021/12/02,02:50,3.8,west,5.4
2021/12/02,03:00,4.0,west,4.1
2021/12/02,03:10,4.0,west,6.1
2021/12/02,03:20,3.9,west,4.3
2021/12/02,03:30,3.9,west,6.2
2021/12/02,03:40,3.9,west,6.7
2021/12/02,03:50,3.9,west,6.2
2021/12/02,04:00,3.9,west,5.0
2021/12/02,04:10,4.0,west-northwest,4.3
2021/12/02,04:20,3.9,west,5.0
2021/12/02,04:30,4.1,west-southwest,4.3
2021/12/02,04:40,3.9,west,7.0
2021/12/02,04:50,3.9,west-southwest,6.6
2021/12/02,05:00,3.9,west,8.9
2021/12/02,05:10,4.1,west-southwest,7.4
2021/12/02,05:20,4.0,west,9.1
2021/12/02,05:30,4.1,west-southwest,7.2
2021/12/02,05:40,3.9,west-southwest,6.4
2021/12/02,05:50,3.9,west-southwest,8.4
2021/12/02,06:00,4.0,west-southwest,6.5
2021/12/02,06:10,3.9,west-southwest,4.5
2021/12/02,06:20,3.9,west,6.3
2021/12/02,06:30,4.0,west-southwest,6.9
2021/12/02,06:40,3.9,west,5.9
2021/12/02,06:50,4.0,west,5.1
2021/12/02,07:00,4.0,west,4.5
2021/12/02,07:10,4.0,west,4.1
2021/12/02,07:20,4.1,west,3.6
2021/12/02,07:30,4.0,west-northwest,3.6
2021/12/02,07:40,4.0,west-northwest,2.3
2021/12/02,07:50,3.8,west-northwest,1.7
2021/12/02,08:00,3.8,west-southwest,1.4
2021/12/02,08:10,4.0,west-northwest,1.9
2021/12/02,08:20,4.1,southwest,1.5
2021/12/02,08:30,3.9,west,0.9
2021/12/02,08:40,3.8,north,2.0
2021/12/02,08:50,4.0,north,2.3
2021/12/02,09:00,4.0,northwest,2.6
2021/12/02,09:10,3.8,west-northwest,2.0
2021/12/02,09:20,3.9,north-northeast,0.6
2021/12/02,09:30,3.8,west,4.2
2021/12/02,09:40,4.1,west,5.8
2021/12/02,09:50,3.9,west,5.9
2021/12/02,10:00,3.9,west,6.5
2021/12/02,10:10,3.7,west,7.7
2021/12/02,10:20,4.0,west,6.3
2021/12/02,10:30,4.0,west,7.9
2021/12/02,10:40,3.8,west,8.0
2021/12/02,10:50,4.1,west,9.3
2021/12/02,11:00,3.8,west,6.1
2021/12/02,11:10,4.0,west,5.4
2021/12/02,11:20,3.9,west,3.9
2021/12/02,11:30,3.8,west-northwest,6.9
2021/12/02,11:40,3.9,northwest,5.7
2021/12/02,11:50,3.9,north-northeast,4.0
2021/12/02,12:00,4.0,northwest,2.6
2021/12/02,12:10,4.0,west,3.7
2021/12/02,12:20,3.9,west,5.0
2021/12/02,12:30,4.0,west,8.7
2021/12/02,12:40,4.0,west-northwest,7.4
2021/12/02,12:50,3.9,west,6.2
2021/12/02,13:00,4.1,west,8.1
2021/12/02,13:10,4.0,northwest,4.9
2021/12/02,13:20,4.1,northeast,2.0
2021/12/02,13:30,3.9,north-northeast,2.8
2021/12/02,13:40,4.0,north,2.5
2021/12/02,13:50,4.0,north-northeast,1.7
2021/12/02,14:00,3.9,east-northeast,2.0
2021/12/02,14:10,4.0,east-northeast,3.3
2021/12/02,14:20,3.9,east,3.4
2021/12/02,14:30,3.9,southeast,1.4
2021/12/02,14:40,4.1,south-southeast,1.7
2021/12/02,14:50,4.2,west-southwest,0.6
2021/12/02,15:00,3.9,northwest,3.6
2021/12/02,15:10,3.8,west-northwest,3.6
2021/12/02,15:20,3.9,west-northwest,3.0
2021/12/02,15:30,3.9,west-northwest,5.6
2021/12/02,15:40,3.9,west,7.0
2021/12/02,15:50,4.0,west,6.5
2021/12/02,16:00,3.7,west,7.4
2021/12/02,16:10,3.9,west-southwest,6.9
2021/12/02,16:20,3.9,west-southwest,7.3
2021/12/02,16:30,4.0,west-southwest,6.8
2021/12/02,16:40,3.9,west-southwest,6.8
2021/12/02,16:50,3.9,west-southwest,7.6
2021/12/02,17:00,3.8,west-southwest,5.7
2021/12/02,17:10,3.9,west,6.0
2021/12/02,17:20,3.9,west,6.7
2021/12/02,17:30,4.0,west-northwest,7.7
2021/12/02,17:40,4.0,west,6.5
2021/12/02,17:50,3.8,west,7.3
2021/12/02,18:00,4.1,west,8.5
2021/12/02,18:10,3.8,west,6.5
2021/12/02,18:20,3.9,west,6.2
2021/12/02,18:30,3.8,west,5.0
2021/12/02,18:40,3.8,west,5.9
2021/12/02,18:50,3.9,west,7.4
2021/12/02,19:00,4.0,west,6.1
2021/12/02,19:10,3.8,west,5.2
2021/12/02,19:20,3.8,west,5.0
2021/12/02,19:30,4.0,west,4.0
2021/12/02,19:40,3.8,west-southwest,3.3
2021/12/02,19:50,4.0,west-southwest,4.0
2021/12/02,20:00,3.9,southwest,5.1
2021/12/02,20:10,4.1,southwest,5.5
2021/12/02,20:20,4.1,south-southwest,5.4
2021/12/02,20:30,3.8,south-southwest,5.5
2021/12/02,20:40,4.0,south,5.2
2021/12/02,20:50,4.0,south,4.1
2021/12/02,21:00,4.0,south,3.8
2021/12/02,21:10,4.0,south,4.1
2021/12/02,21:20,4.2,south-southwest,3.6
2021/12/02,21:30,3.8,southwest,2.0
2021/12/02,21:40,3.9,southwest,2.2
2021/12/02,21:50,3.9,southwest,3.4
2021/12/02,22:00,4.0,southwest,3.2
2021/12/02,22:10,3.9,southwest,2.5
2021/12/02,22:20,4.1,southwest,2.0
2021/12/02,22:30,4.0,southwest,2.6
2021/12/02,22:40,4.0,southwest,3.5
2021/12/02,22:50,3.7,southwest,4.3
2021/12/02,23:00,4.0,south-southwest,5.0
2021/12/02,23:10,4.0,south,5.4
2021/12/02,23:20,3.9,south-southwest,5.1
2021/12/02,23:30,4.0,south-southwest,5.4
2021/12/02,23:40,3.8,south-southwest,4.8
2021/12/02,23:50,4.1,southwest,3.9
